Location: Newark
(29.4733°N, 82.6067°W)
Time: 10:42:18
(UTC+00:00)

Envisat - Visible Passes

Search period start: 21 September 2021 00:00
Search period end: 01 October 2021 00:00
Orbit: 764 x 766 km, 98.2° (Epoch: 20 September)

Date Brightness Start Highest point End Pass type
(mag) Time Alt. Az. Time Alt. Az. Time Alt. Az.
21 Sep 4.9 09:53:39 10° NE 09:58:06 30° E 10:02:30 10° SSE visible
22 Sep 6.1 09:19:17 10° ENE 09:21:01 12° E 09:22:47 10° ESE visible
22 Sep 3.1 10:55:19 10° N 11:00:16 56° WNW 11:05:13 10° SSW visible
23 Sep 3.7 10:18:29 10° NNE 10:23:30 58° E 10:28:27 10° S visible
24 Sep 5.4 09:42:33 10° NE 09:46:32 23° E 09:50:30 10° SSE visible
25 Sep 3.0 10:43:44 10° N 10:48:48 74° WNW 10:53:51 10° SSW visible
26 Sep 4.2 10:07:08 10° NNE 10:11:57 43° E 10:16:46 10° S visible
27 Sep 5.8 09:31:38 10° NE 09:34:58 17° E 09:38:16 10° SE visible
28 Sep 3.1 10:32:12 10° NNE 10:37:18 84° ESE 10:42:23 10° S visible
29 Sep 4.8 09:55:52 10° NE 10:00:25 33° E 10:04:57 10° SSE visible
30 Sep 6.0 09:21:06 10° ENE 09:23:22 13° E 09:25:38 10° ESE visible
